Regional Weather Roundup
Issued by NWS

Home | Current Version | Previous Version | Graphics & Text | Print | Product List | Glossary On
Versions: 1 2 3 4 5 6 7 8 9 10 11 12 13 14 15 16 17 18 19 20 21 22 23 24 25 26 27 28 29 30 31 32 33 34 35 36 37 38 39 40 41 42 43 44 45 46 47 48 49 50
370
ASUS44 KJAN 221103
RWRMS

MISSISSIPPI HOURLY WEATHER ROUNDUP
NATIONAL WEATHER SERVICE JACKSON MS
600 AM CDT FRI AUG 22 2014

NOTE: "FAIR: INDICATES FEW OR NO CLOUDS BELOW 12,000 FEET WITH NO
SIGNIFICANT WEATHER AND/OR OBSTRUCTIONS TO VISIBILITY.

MSZ001>002-007>008-010>013-018>021-025>028-034>036-221200-
NORTHWEST MISSISSIPPI

CITY           SKY/WX    TMP DP  RH WIND       PRES   REMARKS
CLARKSDALE     FAIR      73  73 100 CALM      30.08R
CLEVELAND      FAIR      72  72  99 S3        30.07S
GREENWOOD      CLEAR     72  70  93 SW3       30.09S
GREENVILLE     CLEAR     72  70  93 S5        30.07F
GRENADA        FAIR      70  68  94 CALM      30.09S
OLIVE BRANCH   CLEAR     72  72 100 S6        30.08R
OXFORD         FAIR      72  68  88 CALM      30.11R
TUNICA         SUNNY     72  70  94 S3        30.08R
$$

MSZ003>006-009-014>017-022>024-029>033-037>039-221200-
NORTHEAST MISSISSIPPI

CITY           SKY/WX    TMP DP  RH WIND       PRES   REMARKS
BELMONT        FAIR      73  72  94 SW3       30.10R
COLUMBUS AFB   CLEAR     72  72 100 NW1       30.10R
CORINTH        FAIR      77  72  83 W7        30.07S
GOLDN TRIANGLE CLEAR     73  66  78 CALM      30.10R
STARKVILLE     FAIR      70  68  94 CALM      30.10R
TUPELO         CLEAR     75  71  87 SW5       30.08S
$$

MSZ040-058-221200-
CENTRAL MISSISSIPPI

CITY           SKY/WX    TMP DP  RH WIND       PRES   REMARKS
JACKSON INTL   CLEAR     72  71  97 CALM      30.11R
JACKSON HAWKNS CLEAR     74  71  91 CALM      30.12R
MERIDIAN KEY   CLEAR     71  69  93 CALM      30.10S
MERIDIAN NAS   CLEAR     73  70  90 CALM      30.11R
RAYMOND        FAIR      72  66  83 CALM      30.11R HAZE
VICKSBURG      MOCLDY    72  70  93 CALM      30.10R
$$

MSZ059>079-221200-
SOUTH MISSISSIPPI

CITY           SKY/WX    TMP DP  RH WIND       PRES   REMARKS
BROOKHAVEN     FAIR      72  72 100 CALM      30.13S FOG
COLUMBIA       FAIR      72  72 100 MISG      30.09S FOG
HATTIESBURG    FOG       74  71  91 CALM      30.10S VSB 3/4
MCCOMB         PTCLDY    73  71  93 CALM      30.11S
NATCHEZ        CLOUDY    73  72  94 CALM      30.11R
PINE BELT      CLEAR     72  68  88 CALM      30.11S
$$

MSZ080>082-221200-
COASTAL MISSISSIPPI

CITY           SKY/WX    TMP DP  RH WIND       PRES   REMARKS
BILOXI         PTCLDY    79  73  83 VRB1      30.09R
PASCAGOULA     CLEAR     73  73 100 CALM      30.08S
GULFPORT       PTCLDY    77  74  90 NW3       30.08R
$$



USA.gov is the U.S. government's official web portal to all federal, state and local government web resources and services.